CZ-6A DEB, 57576

Orbit data source: Space-Track

CZ-6A DEB, 57576 is space debris in SSO originally from a launch on Fri, 11 Nov 2022 UTC launched from the Taiyaun Space Center, China (TSC). Debris objects in space refer to the collection of defunct objects orbiting the Earth. Examples of debris include non-operational satellites, rocket bodies, and fragments generated from explosions, collisions, or faulty payload assembly.

Loading next visibility...
Identifier
57576, 2022-151AHT
Orbit
SSO
Country
Flag of CNCN / PRC
Related business
Manufacturer
SAST
Mission
Spacecraft
Bus & Motor
Unknown
Mass
Unknown
Launch date (UTC)
2022-11-11 (4 years ago)
Launch vehicle
Unknown
Launch site
Taiyaun Space Center, China (TSC)
Object type
Payload
Rocket body
Debris
Shape & HBR
Unknown shape, 0.1 m
Radar Cross Section
Small (<0.1 m²)

Expand to show TLE details & history
Last TLE update: 2 days ago

TLE from 2 days ago
0 CZ-6A DEB
1 57576U 22151AHT 26234.95646969  .00001390  00000-0  69023-3 0  9998
2 57576  98.8232 242.2840 0040468 118.8160 241.7087 14.18337091172953
Epoch: 2026-08-22T22:57Z
TLE epoch observation values (Epoch: 2026-08-22T22:57:18.981Z)
Latitude
-0.00005°
Longitude
-73.30452°
Altitude
847.812 km
Speed
7.422 km/s
True Right ascension
16h 09m 08s
True Declination
0° 00' 00"
Sunlit
Object was in daylight at epoch
Visualization orbit readout
Latitude
Unknown
Longitude
Unknown
Altitude
Unknown
Speed
Unknown
Apparent Right ascension
Unknown
Apparent Declination
Unknown
Sunlit
N/A
Visualization observer readout
Local Sidereal Time
02:09:04
Azimuth
Unknown
Elevation
Unknown
Doppler factor
Unknown
Orbital elements
Apogee altitude
857.311 km
Perigee altitude
798.986 km
Semi-major axis
7,206.285 km
Eccentricity
0.00405
Inclination
98.8232°
RAAN
242.284°
Arg. of periapsis
118.816°
True anomaly
241.30134°
Mean anomaly
241.7087°
Eccentric anomaly
241.50492°
Mean motion
3.54794 °/min
Orbital period
101.47 mins
BSTAR
0.00069023
Loading maneuver chart data...
Computing Atmospheric mass density...
Loading historical data...
Loading historical data...
Loading historical data...
Loading historical data...
Loading historical data...
Loading historical data...
Loading historical data...

Documentation

Showing up to 5 results
|